Lapse_Rate
5.5 5.2 5.0 5.0 4.4 3.8 1.7 1.6 6.4 4.2 2.5 5.0 6.2 6.5 6.5 6.6 6.5 6.5 6.5 6.5 6.5 6.5 6.5 6.5 6.5 6.5 6.5 6.9 6.6 6.5 6.5 6.5 6.5 6.5 6.5 6.5 6.5 6.5 6.5 6.5 6.5 6.5 6.5 6.5
5.7 5.1 5.1 5.2 4.7 4.2 1.3 2.8 2.3 3.0 3.5 6.5 6.5 6.5 6.5 6.6 6.5 6.5 6.5 6.5 6.5 6.5 6.5 6.5 6.5 6.5 6.6 6.9 6.5 6.5 6.5 6.5 6.5 6.5 6.5 6.5 6.5 6.5 6.5 6.5 6.5 6.5 6.5 6.5
5.8 5.4 5.2 5.0 4.5 3.9 0.5 2.0 6.5 1.8 2.9 6.3 6.5 6.5 6.5 6.5 6.9 6.5 6.7 6.5 6.4 6.5 6.5 6.5 6.5 6.5 6.5 6.9 6.7 6.9 6.7 6.5 6.5 6.5 6.5 6.5 6.5 6.5 6.5 6.5 6.5 6.5 6.5 6.5
6.1 6.1 5.4 5.0 4.6 3.8 0.7 1.4 6.5 6.4 6.5 6.2 6.5 6.5 6.5 6.5 6.5 6.7 6.7 6.5 6.5 6.5 6.5 6.5 6.5 6.5 6.5 6.6 6.7 6.5 6.5 6.5 6.5 6.5 6.5 6.5 6.5 6.5 6.5 6.5 6.5 6.5 6.5 6.5
6.8 6.5 5.9 5.3 4.8 3.7 0.8 3.2 4.6 5.2 5.3 5.4 6.5 6.5 6.5 6.5 6.5 6.5 6.5 6.5 6.5 6.5 6.5 6.5 6.5 6.5 6.5 6.5 6.5 6.5 6.5 6.5 6.5 6.5 6.5 6.5 6.5 6.5 6.5 6.5 6.5 6.5 6.5 6.5
6.9 6.5 6.1 5.7 5.3 3.3 2.6 3.2 4.5 6.4 6.0 6.2 6.5 6.5 6.5 6.5 6.5 6.6 6.8 6.6 6.5 6.5 6.5 6.3 6.2 5.7 5.7 6.3 6.5 6.5 6.5 6.5 6.5 6.5 6.5 6.5 6.5 6.5 6.5 6.5 6.5 6.5 6.5 6.5
6.3 6.1 6.3 6.3 6.6 4.9 2.6 3.2 3.2 4.5 6.5 6.5 6.5 6.5 6.5 6.5 6.5 6.5 6.8 7.0 6.5 6.0 4.8 3.9 4.6 5.2 5.8 6.3 6.5 6.3 6.5 6.5 6.5 6.5 6.5 6.5 6.5 6.5 6.5 6.5 6.5 6.5 6.5 6.5
6.4 6.2 6.4 6.4 7.1 6.5 3.4 3.3 3.9 5.0 6.5 6.3 6.4 6.4 6.5 6.2 6.8 6.5 6.7 7.0 7.4 5.6 4.9 6.5 6.5 6.5 6.5 6.5 6.5 6.5 6.5 6.5 6.5 6.5 6.5 6.5 6.5 6.5 6.5 6.5 6.5 6.5 6.5 6.5
5.9 6.0 6.2 6.2 6.8 7.0 3.3 3.6 4.1 4.6 6.5 6.3 6.2 6.3 6.0 6.5 6.5 6.5 6.8 6.1 5.3 5.1 6.5 6.5 6.5 6.5 6.5 6.5 6.5 6.5 6.5 6.5 6.5 6.5 6.5 6.5 6.5 6.5 6.3 6.5 6.5 6.5 6.1 6.5
5.6 5.5 6.0 6.3 6.9 6.3 4.3 4.5 5.1 4.7 5.3 4.7 6.1 6.1 6.2 5.7 6.3 6.5 6.6 6.7 5.7 5.6 6.5 6.5 6.5 6.5 6.5 6.5 6.5 6.5 6.5 6.5 6.5 6.5 6.5 6.5 6.5 6.5 6.2 6.5 6.5 6.3 5.2 5.2
5.2 5.1 5.7 6.3 6.6 6.6 4.7 4.4 5.3 4.9 4.8 4.8 5.7 6.4 5.8 5.7 5.9 6.5 6.5 6.4 6.5 6.5 6.5 6.5 6.5 6.5 6.5 6.5 6.5 6.5 6.5 6.5 6.5 6.5 6.5 6.5 6.3 6.4 6.5 6.3 6.2 5.6 4.9 5.2
5.0 5.2 5.7 6.3 6.7 6.8 6.1 4.5 5.7 5.5 6.0 5.2 6.1 6.0 5.9 6.2 5.9 6.6 6.5 6.6 6.7 7.2 6.5 6.5 6.5 6.5 6.5 6.5 6.5 6.5 6.5 6.5 6.5 6.5 6.5 6.2 6.0 6.2 5.6 4.9 5.7 5.5 5.6 4.8
5.0 5.3 5.7 6.0 6.5 6.9 6.8 4.9 5.4 5.5 6.4 5.1 3.8 4.7 6.0 4.6 4.4 5.5 6.0 5.8 6.3 6.5 6.6 7.0 6.5 6.5 6.5 6.5 6.5 6.5 6.5 6.1 6.5 6.5 6.5 6.5 5.9 5.3 4.4 4.0 4.3 4.3 4.4 4.5
4.7 5.0 5.3 5.4 5.8 6.6 7.1 5.9 5.1 6.3 6.4 6.7 4.8 5.2 5.5 5.9 5.0 5.3 5.3 5.8 6.1 6.0 6.3 7.0 6.5 6.5 5.8 6.5 6.5 6.5 6.2 6.4 6.5 6.5 6.5 6.2 5.8 5.1 5.0 4.0 3.8 3.8 3.8 4.4
4.6 4.6 4.7 5.2 5.6 6.5 5.7 4.6 4.7 5.0 6.3 6.5 6.0 5.2 4.8 4.4 4.7 5.2 5.0 5.6 5.7 6.6 6.4 6.6 6.5 6.2 6.2 6.2 6.5 6.5 5.7 6.5 6.5 6.5 5.7 5.8 5.7 5.0 4.9 4.3 4.1 3.8 4.6 4.9
4.3 4.2 4.5 4.9 5.5 5.6 4.0 4.4 6.1 6.6 6.2 6.5 6.5 5.0 4.3 5.3 5.4 4.5 4.7 4.9 6.2 5.8 6.9 6.8 6.3 5.5 5.8 6.5 6.5 6.0 4.9 4.7 5.3 5.9 5.0 4.5 4.0 4.2 4.7 4.1 4.4 4.5 4.3 4.3
4.1 4.6 4.4 4.7 5.4 4.9 3.6 4.3 5.4 6.7 6.1 6.8 6.4 6.1 4.7 5.7 6.7 4.8 5.2 5.9 6.8 6.4 6.8 6.7 6.0 5.2 6.3 6.5 6.5 6.0 5.1 4.8 3.9 3.4 4.8 5.2 5.0 5.1 4.2 4.2 4.3 4.4 3.7 3.1
4.1 4.8 4.5 5.4 5.9 5.7 5.0 5.6 6.8 6.4 6.4 6.4 6.5 6.5 5.2 6.0 5.9 6.5 5.0 5.7 6.2 6.6 6.8 6.7 6.3 6.5 6.3 6.5 6.1 5.1 5.0 3.9 3.8 3.3 3.3 3.5 3.4 3.7 3.8 3.6 3.6 4.0 3.5 3.2
4.0 4.7 5.7 4.4 3.8 5.4 5.2 6.7 6.4 6.1 6.4 5.2 5.5 6.5 6.5 5.0 5.4 6.1 6.6 7.1 6.5 6.9 6.5 6.4 6.1 6.5 6.5 6.5 5.7 5.9 5.3 5.5 4.6 4.0 3.9 4.1 4.2 4.1 4.3 4.5 4.5 4.9 4.5 4.0
3.6 3.4 3.7 4.4 4.1 5.2 5.9 6.1 5.6 5.8 6.4 6.7 6.6 5.3 6.5 5.9 6.8 6.6 6.7 6.7 6.5 6.5 6.4 5.4 6.5 6.5 4.7 3.7 2.4 2.9 3.5 4.3 5.1 5.4 5.5 5.1 4.9 4.8 4.9 4.7 5.0 5.0 4.8 4.5
1.5 2.1 2.5 3.4 4.5 4.3 5.4 6.2 6.5 6.4 6.6 6.9 6.6 6.6 6.6 5.7 6.5 6.5 6.9 6.5 6.5 6.5 6.5 6.5 6.5 6.5 6.2 4.1 3.6 3.7 4.4 4.7 4.6 4.6 4.6 4.7 5.0 5.1 5.1 5.2 5.2 5.0 4.9 4.8
1.9 2.0 3.2 3.6 4.3 3.3 5.9 6.5 6.2 6.5 6.5 6.6 6.6 6.8 6.9 6.5 6.7 6.7 6.6 6.5 6.5 6.5 6.5 6.5 6.5 6.5 4.7 4.5 5.4 5.1 4.9 5.0 4.1 4.4 4.2 4.7 4.9 4.8 5.1 5.2 5.0 4.7 4.7 4.9
1.9 3.3 5.1 4.4 6.0 6.5 6.5 6.5 6.5 6.5 5.1 6.5 6.5 6.5 7.0 6.8 6.9 6.7 6.5 6.5 6.5 6.6 6.5 6.5 6.5 5.9 4.6 4.0 5.3 5.4 5.8 6.2 5.6 4.9 4.7 4.5 4.2 4.0 4.1 4.3 4.0 3.8 4.0 4.0
1.9 0.6 6.5 6.4 6.5 6.5 6.5 6.5 6.1 2.9 1.9 4.4 6.8 6.5 5.1 6.4 6.6 6.5 6.5 6.5 6.5 6.5 6.5 6.5 6.5 5.4 5.1 5.3 5.3 6.4 5.5 4.2 3.9 3.7 3.9 3.9 4.2 4.0 3.8 3.4 2.1 2.0 2.3 2.8
0.7 1.4 6.5 6.5 3.8 4.8 6.9 6.7 5.7 2.8 2.2 6.2 6.6 6.6 6.8 6.4 6.5 6.5 6.5 6.5 6.5 6.5 6.5 6.5 6.5 5.8 5.1 4.5 5.6 5.7 4.4 2.2 1.3 1.1 1.3 1.6 1.9 2.5 2.3 1.9 1.3 1.7 1.9 1.8
0.2 3.3 5.5 4.2 4.0 1.5 1.1 4.6 2.5 1.4 3.0 3.4 6.5 6.5 6.5 6.5 6.5 6.5 6.5 6.5 6.5 6.5 6.5 6.3 5.8 5.6 5.1 5.4 5.4 4.9 4.8 3.8 3.5 2.8 1.9 2.1 2.1 2.0 1.1 -0.1 -0.6 -0.2 -0.5 -0.3
6.0 6.3 6.4 4.3 5.9 6.2 1.8 1.3 2.3 4.6 6.3 6.5 6.6 6.5 6.5 6.5 6.5 6.5 6.5 6.5 6.5 6.6 5.9 5.0 5.6 5.6 5.6 4.6 4.2 4.1 4.0 4.4 3.5 2.9 2.7 2.1 1.7 1.6 1.7 1.9 1.0 -0.3 0.4 -0.2
Wind_Speed
20 24 28 31 35 30 7 2 3 3 2 3 2 3 8 6 5 0 5 3 4 4 1 5 8 8 6 13 14 10 4 2 3 7 1 8 4 6 5 3 4 1 3 4
19 23 25 30 31 24 1 2 1 3 3 3 3 6 6 4 6 8 6 4 4 9 4 2 2 3 9 18 12 17 11 6 3 3 2 4 9 5 5 5 4 4 4 4
17 20 24 28 31 24 3 3 3 4 4 2 3 5 5 9 7 4 8 4 6 6 5 5 4 7 6 16 13 16 17 6 5 6 3 8 10 14 8 5 3 4 4 3
14 18 21 25 31 23 3 4 2 0 4 4 7 6 6 9 10 6 9 4 12 5 4 7 6 4 4 11 9 7 8 1 3 3 4 9 11 14 12 9 6 4 3 6
11 15 18 23 28 14 4 3 3 3 2 4 6 8 6 8 8 5 5 9 17 8 3 2 5 6 3 2 1 4 3 3 2 6 4 5 4 9 11 6 4 5 2 4
8 12 16 20 24 12 3 1 1 1 4 5 3 3 5 6 10 6 9 11 15 6 5 9 10 7 5 5 3 1 2 4 2 2 4 6 1 9 11 5 4 6 5 5
5 8 11 16 18 11 3 1 2 3 2 2 2 4 6 9 12 6 12 11 7 4 17 12 2 4 5 3 2 2 2 2 2 3 2 0 4 1 9 8 5 6 2 2
3 5 8 12 15 12 3 0 3 2 2 3 4 7 5 9 8 4 7 6 7 13 6 4 3 3 4 3 4 6 4 3 3 3 2 3 0 2 5 6 6 6 5 3
4 3 5 10 11 9 3 1 1 3 1 3 3 4 3 4 5 6 3 9 10 4 2 2 1 0 2 3 7 3 4 6 3 1 3 2 1 1 2 3 4 6 7 6
5 2 4 7 9 5 3 1 2 3 0 3 2 2 3 4 3 4 5 7 7 4 4 2 2 2 1 2 3 4 3 3 2 1 1 3 3 2 0 3 4 3 6 6
6 3 2 5 6 5 3 1 1 3 1 4 3 3 2 4 1 2 5 4 2 3 3 2 2 1 1 1 1 0 0 2 1 1 3 1 1 1 4 3 1 4 4 4
7 4 2 3 3 5 4 1 1 3 2 5 4 8 12 9 13 2 2 3 2 3 3 3 2 2 2 0 2 2 0 3 2 4 3 3 3 1 2 0 3 3 3 2
8 5 3 3 4 3 2 2 1 1 2 4 3 3 2 0 8 7 2 2 1 2 3 3 2 3 1 1 2 2 2 2 1 1 2 1 2 3 4 4 4 3 3 4
8 4 2 2 3 4 2 0 1 1 1 3 5 2 6 6 2 8 8 2 2 1 2 3 2 2 1 2 3 2 4 2 1 1 1 2 2 2 3 4 5 6 5 3
7 4 1 3 4 6 6 5 1 1 2 2 5 9 3 6 4 6 7 4 2 1 3 2 2 1 2 1 1 3 3 4 3 3 3 3 2 3 2 4 4 4 4 3
5 3 2 3 4 1 3 2 3 5 3 3 3 3 4 5 5 4 5 5 3 3 1 3 3 3 1 2 2 4 3 2 2 2 2 2 5 4 2 4 2 3 4 3
4 3 4 4 1 2 2 3 3 2 3 1 3 4 4 4 3 1 2 3 2 1 2 3 2 2 0 2 3 3 4 3 4 5 3 3 0 1 4 5 3 3 3 3
1 3 3 6 9 6 3 1 5 4 2 1 2 4 4 1 2 1 2 3 2 5 2 2 2 2 2 4 4 4 1 4 5 6 5 3 5 5 5 4 4 4 4 3
1 4 10 4 3 2 1 7 5 6 2 1 1 2 4 4 1 2 2 3 3 2 3 2 2 2 4 4 4 3 2 0 4 3 4 5 5 5 4 4 5 3 3 4
10 4 3 2 1 5 3 0 2 2 1 0 2 2 3 2 2 3 1 2 2 2 4 2 3 4 1 1 2 3 3 3 1 2 1 2 2 3 3 3 3 3 3 4
3 2 1 2 4 2 2 2 2 1 1 1 2 3 4 2 3 2 3 2 2 2 2 2 2 3 1 2 3 3 3 5 5 4 5 4 4 3 3 3 4 4 5 5
4 4 3 1 3 3 3 1 1 1 2 1 2 3 4 3 3 3 3 3 2 3 3 2 3 2 2 3 3 4 4 5 6 5 5 5 5 4 4 4 4 5 5 5
3 3 3 3 2 5 3 1 4 2 1 2 4 5 3 3 3 3 3 4 3 1 2 3 2 1 2 4 3 4 4 4 5 4 4 4 5 5 5 5 5 5 5 5
3 3 3 3 3 3 3 3 4 4 3 2 5 3 2 3 3 3 4 2 1 2 2 4 1 2 3 4 3 4 4 4 3 3 3 4 3 4 4 4 4 4 4 5
3 3 2 4 2 1 2 1 1 2 1 2 3 3 3 2 4 3 3 3 3 3 1 1 3 4 3 4 3 4 4 3 1 0 2 2 3 2 2 4 3 4 4 5
3 3 2 1 2 3 1 2 3 2 0 1 1 3 3 4 4 3 4 2 1 2 3 3 4 3 3 3 4 4 3 3 2 2 1 1 1 1 0 1 4 4 3 3
2 1 2 2 1 4 3 3 3 2 2 2 2 3 4 4 3 2 4 4 4 6 4 3 4 5 3 4 5 4 3 2 2 2 1 1 1 2 2 3 4 3 3 2
Wind_Direction
354 358 354 348 350 355 33 54 43 303 54 43 357 355 319 284 302 66 260 258 267 279 138 172 212 224 223 175 165 170 162 5 180 176 169 172 144 157 159 149 220 191 166 274
359 360 354 350 354 1 20 55 318 311 70 54 346 317 326 314 329 323 334 313 349 313 323 317 57 21 133 165 165 167 156 204 107 208 141 157 207 170 151 107 62 227 132 257
0 2 358 355 357 5 87 63 33 331 23 20 359 347 349 344 307 321 340 301 346 338 353 354 44 354 164 168 205 195 174 163 197 196 156 147 190 192 173 142 150 178 215 289
359 6 4 2 360 4 83 30 66 112 344 341 334 339 4 342 354 357 345 341 4 334 317 346 10 351 350 171 161 135 196 104 138 22 121 156 171 173 160 188 212 182 237 205
2 10 10 12 7 14 75 91 49 356 281 310 333 0 22 334 347 298 322 339 335 329 39 352 314 4 4 305 271 199 185 206 77 39 95 88 143 178 184 190 177 250 261 269
13 15 19 21 20 31 76 351 39 44 311 344 17 324 331 311 340 275 265 325 313 318 341 305 270 225 258 253 319 305 145 141 93 358 62 93 12 200 185 174 188 157 183 234
35 24 28 31 31 47 109 147 111 73 318 360 325 320 309 308 314 272 297 316 307 337 323 294 205 227 233 227 300 335 101 88 84 122 52 119 253 238 177 187 200 215 239 252
88 43 34 39 33 37 87 138 89 102 315 259 297 320 289 299 299 295 290 325 321 316 299 348 1 338 1 341 0 11 35 103 84 129 188 302 243 167 152 164 249 204 197 171
134 78 45 45 40 33 87 64 125 99 356 271 298 321 306 316 330 321 280 309 314 303 309 15 58 57 304 330 344 29 51 62 105 125 128 195 311 281 234 117 292 200 166 162
151 139 68 53 45 61 96 57 16 95 247 265 111 274 286 323 2 286 300 341 336 336 359 36 28 313 266 18 2 337 4 4 95 74 125 300 250 267 123 113 243 156 153 154
163 182 84 58 53 76 99 245 59 111 239 272 222 221 244 300 252 267 328 327 41 301 11 0 313 337 319 317 301 41 101 72 317 51 56 7 242 57 149 226 355 139 122 146
174 188 109 49 53 76 134 182 166 134 192 249 221 234 251 239 233 281 298 303 350 332 315 12 323 323 360 58 314 350 102 176 203 168 221 265 342 326 4 107 77 43 98 77
181 181 127 51 43 33 88 197 186 91 290 294 354 295 304 201 217 197 201 240 25 36 24 302 304 287 119 329 279 313 291 171 159 71 335 59 49 46 41 43 81 58 64 68
184 164 136 15 12 3 45 42 124 120 41 305 288 321 307 291 208 196 218 136 145 48 270 271 253 254 155 254 256 194 219 6 172 270 248 116 41 57 109 81 74 67 50 53
181 169 164 354 354 4 67 82 83 95 75 288 291 316 270 289 219 217 213 227 148 58 322 282 278 272 325 283 331 263 193 199 158 227 209 149 175 146 104 86 69 58 64 51
195 191 262 326 317 62 90 66 27 132 133 301 309 285 286 290 313 230 195 172 180 178 193 258 272 235 138 312 270 261 249 257 220 283 135 98 122 102 78 102 75 36 52 38
199 244 311 323 216 121 127 157 200 243 136 324 303 302 272 304 301 46 64 165 197 142 224 245 251 287 217 256 253 291 344 54 52 52 92 71 186 140 87 102 72 66 81 50
205 321 28 117 133 107 62 35 49 92 78 112 289 275 327 1 300 272 187 153 197 189 246 242 235 322 251 254 243 254 45 94 62 52 56 89 97 77 56 45 18 25 19 5
27 136 127 74 44 78 204 314 100 107 93 75 320 283 291 0 287 277 226 187 212 203 227 238 141 202 232 243 258 272 188 233 161 89 72 71 95 102 64 47 30 15 355 356
116 71 73 36 274 310 330 108 51 38 65 166 261 307 290 348 298 285 254 218 221 217 222 149 211 249 223 80 85 75 61 50 71 118 128 108 95 53 28 44 34 8 345 332
59 84 125 233 328 57 35 73 50 13 309 225 246 243 289 296 285 297 292 297 232 235 212 242 249 269 251 113 85 46 57 62 46 69 74 57 64 48 18 18 26 14 357 343
159 139 113 57 40 36 86 3 326 189 237 297 306 337 291 277 250 267 262 266 201 244 146 227 251 245 139 147 118 76 63 69 62 55 64 53 60 42 44 42 22 1 340 341
58 64 72 71 330 38 104 316 315 347 348 353 321 321 284 282 246 243 244 238 233 182 209 229 236 18 171 152 128 104 91 95 94 84 81 79 79 67 58 45 24 1 355 353
77 103 49 114 305 196 186 188 187 236 155 259 311 264 257 283 254 243 251 207 153 254 222 235 304 249 200 161 160 137 128 113 100 91 90 78 70 74 76 57 21 4 358 343
100 87 188 191 220 246 200 263 327 278 203 349 303 267 242 264 268 242 262 213 229 224 261 57 359 309 175 166 165 152 147 147 132 298 71 44 34 53 69 42 18 22 13 6
85 98 90 257 52 304 282 224 248 236 304 342 208 271 272 255 282 266 241 218 105 26 337 318 317 299 182 161 161 140 134 148 162 137 139 123 58 58 73 39 30 8 16 360
84 242 202 161 253 243 219 182 233 214 61 7 314 270 251 291 267 281 10 18 356 327 320 312 308 300 194 142 148 145 143 155 156 146 111 93 54 74 49 27 349 337 341 309